Вернуться в каталог

FENGYUN 1C DEB

АктивенPO
NORAD 31410·DEBRIS·🇨🇳 China

Запущен May 10, 1999 с Taiyuan Satellite Launch Center

Loading…

Ближайшие Пролёты (ближайшие 24 часа)

TLE

СвежийSource: Space-Track

Эпоха: Sep 12, 2026, 08:07 UTC

1 31410U 99025BSW 26255.33851019  .00001591  00000-0  42786-3 0  9990
2 31410  98.8598  73.5624 0108552 187.5123 293.7523 14.46109559 17006

Отслеживайте FENGYUN 1C DEB в реальном времени с AllMySat

Download on the App Store